Location: Betzi
(47.2343°N, 9.5260°E)
Time: 23:13:30
(UTC+00:00)

Cosmos 2251 Rocket - Pass Details

Date: 27 May 2022
Orbit: 764 x 791 km, 74.0° (Epoch: 26 June)

Event Time Altitude Azimuth Distance (km) Brightness Sun altitude
Rises 01:22:54 0° 340° (NNW) 3,249 7.4 -16.0°
Reaches altitude 10° 01:25:19 10° 344° (NNW) 2,321 6.6 -15.8°
Maximum altitude 01:30:32 60° 64° (ENE) 888 4.1 -15.4°
Drops below altitude 10° 01:35:44 10° 144° (SE) 2,321 5.8 -14.9°
Sets 01:38:09 0° 148° (SSE) 3,249 6.5 -14.7°
